Location: ???????
(55.7027°N, 37.3832°E)
Time: 01:38:39
(UTC+00:00)

Cosmos 921 Rocket - Pass Details

Date: 14 April 2026
Orbit: 563 x 620 km, 75.8° (Epoch: 20 May)

Event Time Altitude Azimuth Distance (km) Brightness Sun altitude
Rises 19:12:59 0° 338° (NNW) 2,912 8.0 -18.7°
Reaches altitude 10° 19:15:25 10° 347° (NNW) 1,999 6.7 -18.9°
Maximum altitude 19:19:32 35° 54° (NE) 1,004 4.1 -19.2°
Enters shadow 19:20:54 28° 91° (E) 1,155 4.1 -19.3°
